Year,Month,Day,Hour,Minute,Value (Times are PST for temperature in C)
2008,07,12,00,00,10.80
2008,07,12,00,01,10.80
2008,07,12,00,02,10.80
2008,07,12,00,03,10.80
2008,07,12,00,04,10.80
2008,07,12,00,05,10.80
2008,07,12,00,06,10.80
2008,07,12,00,07,10.80
2008,07,12,00,08,10.80
2008,07,12,00,09,10.80
2008,07,12,00,10,10.80
2008,07,12,00,11,10.80
2008,07,12,00,12,10.80
2008,07,12,01,02,11.10
2008,07,12,01,03,11.10
2008,07,12,01,04,11.10
2008,07,12,01,05,11.00
2008,07,12,01,06,11.00
2008,07,12,01,07,10.90
2008,07,12,01,08,10.90
2008,07,12,01,09,10.90
2008,07,12,01,10,10.80
2008,07,12,01,11,10.80
2008,07,12,01,12,10.80
2008,07,12,01,13,10.70
2008,07,12,01,14,10.70
2008,07,12,01,15,10.70
2008,07,12,01,16,10.70
2008,07,12,01,17,10.70
2008,07,12,01,18,10.70
2008,07,12,01,19,10.70
2008,07,12,01,20,10.70
2008,07,12,01,21,10.70
2008,07,12,01,22,10.70
2008,07,12,01,23,10.60
2008,07,12,01,24,10.60
2008,07,12,01,25,10.60
2008,07,12,01,26,10.60
2008,07,12,01,27,10.60
2008,07,12,01,28,10.70
2008,07,12,01,29,10.70
2008,07,12,01,30,10.70
2008,07,12,01,31,10.70
2008,07,12,01,32,10.70
2008,07,12,01,33,10.70
2008,07,12,01,34,10.70
2008,07,12,01,35,10.80
2008,07,12,01,36,10.80
2008,07,12,01,37,10.80
2008,07,12,01,38,10.80
2008,07,12,01,39,10.80
2008,07,12,01,40,10.80
2008,07,12,01,41,10.80
2008,07,12,01,42,10.90
2008,07,12,01,43,10.90
2008,07,12,01,44,10.90
2008,07,12,01,45,10.90
2008,07,12,01,46,10.80
2008,07,12,01,47,10.80
2008,07,12,01,48,10.80
2008,07,12,01,49,10.80
2008,07,12,01,50,10.80
2008,07,12,01,51,10.80
2008,07,12,01,52,10.80
2008,07,12,01,53,10.80
2008,07,12,01,54,10.80
2008,07,12,01,55,10.80
2008,07,12,01,56,10.80
2008,07,12,01,57,10.80
2008,07,12,01,58,10.80
2008,07,12,01,59,10.80
2008,07,12,02,00,10.80
2008,07,12,02,01,10.80
2008,07,12,02,02,10.80
2008,07,12,02,03,10.80
2008,07,12,02,04,10.80
2008,07,12,02,05,10.80
2008,07,12,02,06,10.80
2008,07,12,02,07,10.80
2008,07,12,02,08,10.80
2008,07,12,02,09,10.80
2008,07,12,02,10,10.80
2008,07,12,02,11,10.80
2008,07,12,02,12,10.80
2008,07,12,02,13,10.80
2008,07,12,02,14,10.80
2008,07,12,02,15,10.80
2008,07,12,02,16,10.80
2008,07,12,02,17,10.80
2008,07,12,02,18,10.70
2008,07,12,02,19,10.70
2008,07,12,02,20,10.70
2008,07,12,02,21,10.70
2008,07,12,02,22,10.70
2008,07,12,02,23,10.60
2008,07,12,02,24,10.60
2008,07,12,02,25,10.60
2008,07,12,02,26,10.60
2008,07,12,02,27,10.60
2008,07,12,02,28,10.60
2008,07,12,02,29,10.60
2008,07,12,02,30,10.50
2008,07,12,02,31,10.50
2008,07,12,02,32,10.50
2008,07,12,02,33,10.50
2008,07,12,02,34,10.50
2008,07,12,02,35,10.50
2008,07,12,02,36,10.40
2008,07,12,02,37,10.40
2008,07,12,02,38,10.40
2008,07,12,02,39,10.40
2008,07,12,02,40,10.40
2008,07,12,02,41,10.40
2008,07,12,02,42,10.40
2008,07,12,02,43,10.40
2008,07,12,02,44,10.40
2008,07,12,02,45,10.40
2008,07,12,02,46,10.40
2008,07,12,02,47,10.40
2008,07,12,02,48,10.40
2008,07,12,02,49,10.50
2008,07,12,02,50,10.50
2008,07,12,02,51,10.50
2008,07,12,02,52,10.50
2008,07,12,02,53,10.50
2008,07,12,02,54,10.50
2008,07,12,02,55,10.50
2008,07,12,02,56,10.50
2008,07,12,02,57,10.50
2008,07,12,02,58,10.50
2008,07,12,02,59,10.60
2008,07,12,03,00,10.60
2008,07,12,03,01,10.60
2008,07,12,03,02,10.60
2008,07,12,03,03,10.60
2008,07,12,03,04,10.60
2008,07,12,03,05,10.60
2008,07,12,03,06,10.60
2008,07,12,03,07,10.60
2008,07,12,03,08,10.70
2008,07,12,03,09,10.70
2008,07,12,03,10,10.70
2008,07,12,03,11,10.80
2008,07,12,03,12,10.80
2008,07,12,03,13,10.80
2008,07,12,03,14,10.80
2008,07,12,03,15,10.80
2008,07,12,03,16,10.80
2008,07,12,03,17,10.80
2008,07,12,03,18,10.70
2008,07,12,03,19,10.70
2008,07,12,03,20,10.70
2008,07,12,03,21,10.60
2008,07,12,03,22,10.60
2008,07,12,03,23,10.60
2008,07,12,03,24,10.50
2008,07,12,03,25,10.50
2008,07,12,03,26,10.50
2008,07,12,03,27,10.40
2008,07,12,03,28,10.40
2008,07,12,03,29,10.40
2008,07,12,03,30,10.40
2008,07,12,03,31,10.40
2008,07,12,03,32,10.40
2008,07,12,03,33,10.40
2008,07,12,03,34,10.40
2008,07,12,03,35,10.40
2008,07,12,03,36,10.40
2008,07,12,03,37,10.40
2008,07,12,03,38,10.40
2008,07,12,03,39,10.40
2008,07,12,03,40,10.40
2008,07,12,03,41,10.40
2008,07,12,03,42,10.40
2008,07,12,03,43,10.40
2008,07,12,03,44,10.40
2008,07,12,03,45,10.50
2008,07,12,03,46,10.50
2008,07,12,03,47,10.50
2008,07,12,03,48,10.50
2008,07,12,03,49,10.50
2008,07,12,03,50,10.50
2008,07,12,03,51,10.50
2008,07,12,03,52,10.50
2008,07,12,03,53,10.60
2008,07,12,03,54,10.60
2008,07,12,03,55,10.60
2008,07,12,03,56,10.60
2008,07,12,03,57,10.60
2008,07,12,03,58,10.60
2008,07,12,03,59,10.60
2008,07,12,04,00,10.50
2008,07,12,04,01,10.50
2008,07,12,04,02,10.50
2008,07,12,04,03,10.50
2008,07,12,04,04,10.50
2008,07,12,04,05,10.40
2008,07,12,04,06,10.40
2008,07,12,04,07,10.40
2008,07,12,04,08,10.40
2008,07,12,04,09,10.40
2008,07,12,04,10,10.40
2008,07,12,04,11,10.30
2008,07,12,04,12,10.30
2008,07,12,04,13,10.30
2008,07,12,04,14,10.30
2008,07,12,04,15,10.30
2008,07,12,04,16,10.30
2008,07,12,04,17,10.30
2008,07,12,04,18,10.30
2008,07,12,04,19,10.30
2008,07,12,04,20,10.40
2008,07,12,04,21,10.40
2008,07,12,04,22,10.40
2008,07,12,04,23,10.40
2008,07,12,04,24,10.30
2008,07,12,04,25,10.30
2008,07,12,04,26,10.30
2008,07,12,04,27,10.30
2008,07,12,04,28,10.30
2008,07,12,04,29,10.30
2008,07,12,04,30,10.30
2008,07,12,04,31,10.30
2008,07,12,04,32,10.30
2008,07,12,04,33,10.30
2008,07,12,04,34,10.30
2008,07,12,04,35,10.30
2008,07,12,04,36,10.30
2008,07,12,04,37,10.30
2008,07,12,04,38,10.30
2008,07,12,04,39,10.30
2008,07,12,04,40,10.30
2008,07,12,04,41,10.30
2008,07,12,04,42,10.30
2008,07,12,04,43,10.30
2008,07,12,04,44,10.30
2008,07,12,04,45,10.20
2008,07,12,04,46,10.20
2008,07,12,04,47,10.20
2008,07,12,04,48,10.20
2008,07,12,04,49,10.20
2008,07,12,04,50,10.20
2008,07,12,04,51,10.20
2008,07,12,04,52,10.10
2008,07,12,04,53,10.10
2008,07,12,04,54,10.10
2008,07,12,04,55,10.10
2008,07,12,04,56,10.10
2008,07,12,04,57,10.10
2008,07,12,04,58,10.10
2008,07,12,04,59,10.10
2008,07,12,05,00,10.10
2008,07,12,05,01,10.10
2008,07,12,05,02,10.10
2008,07,12,05,03,10.10
2008,07,12,05,04,10.10
2008,07,12,05,05,10.10
2008,07,12,05,06,10.10
2008,07,12,05,07,10.10
2008,07,12,05,08,10.10
2008,07,12,05,09,10.10
2008,07,12,05,10,10.10
2008,07,12,05,11,10.10
2008,07,12,05,12,10.10
2008,07,12,05,13,10.10
2008,07,12,05,14,10.10
2008,07,12,05,15,10.10
2008,07,12,05,16,10.10
2008,07,12,05,17,10.10
2008,07,12,05,18,10.10
2008,07,12,05,19,10.10
2008,07,12,05,20,10.00
2008,07,12,05,21,10.00
2008,07,12,05,22,10.10
2008,07,12,05,23,10.10
2008,07,12,05,24,10.10
2008,07,12,05,25,10.10
2008,07,12,05,26,10.20
2008,07,12,05,27,10.20
2008,07,12,05,28,10.30
2008,07,12,05,29,10.30
2008,07,12,05,30,10.30
2008,07,12,05,31,10.30
2008,07,12,05,32,10.30
2008,07,12,05,33,10.30
2008,07,12,05,34,10.30
2008,07,12,05,35,10.30
2008,07,12,05,36,10.30
2008,07,12,05,37,10.30
2008,07,12,05,38,10.30
2008,07,12,05,39,10.40
2008,07,12,05,40,10.40
2008,07,12,05,41,10.40
2008,07,12,05,42,10.40
2008,07,12,05,43,10.40
2008,07,12,05,44,10.40
2008,07,12,05,45,10.40
2008,07,12,05,46,10.40
2008,07,12,05,47,10.50
2008,07,12,05,48,10.50
2008,07,12,05,49,10.50
2008,07,12,05,50,10.50
2008,07,12,05,51,10.50
2008,07,12,05,52,10.60
2008,07,12,05,53,10.60
2008,07,12,05,54,10.60
2008,07,12,05,55,10.60
2008,07,12,05,56,10.60
2008,07,12,05,57,10.60
2008,07,12,05,58,10.60
2008,07,12,05,59,10.60
2008,07,12,06,00,10.60
2008,07,12,06,01,10.60
2008,07,12,06,02,10.60
2008,07,12,06,03,10.60
2008,07,12,06,04,10.60
2008,07,12,06,05,10.60
2008,07,12,06,06,10.60
2008,07,12,06,07,10.60
2008,07,12,06,08,10.60
2008,07,12,06,09,10.60
2008,07,12,06,10,10.60
2008,07,12,06,11,10.70
2008,07,12,06,12,10.60
2008,07,12,06,13,10.60
2008,07,12,06,14,10.60
2008,07,12,06,15,10.60
2008,07,12,06,16,10.60
2008,07,12,06,17,10.60
2008,07,12,06,18,10.60
2008,07,12,06,19,10.60
2008,07,12,06,20,10.60
2008,07,12,06,21,10.60
2008,07,12,06,22,10.60
2008,07,12,06,23,10.60
2008,07,12,06,24,10.60
2008,07,12,06,25,10.60
2008,07,12,06,26,10.60
2008,07,12,06,27,10.70
2008,07,12,06,28,10.70
2008,07,12,06,29,10.70
2008,07,12,06,30,10.70
2008,07,12,06,31,10.70
2008,07,12,06,32,10.70
2008,07,12,06,33,10.80
2008,07,12,06,34,10.80
2008,07,12,06,35,10.80
2008,07,12,06,36,10.80
2008,07,12,06,37,10.80
2008,07,12,06,38,10.80
2008,07,12,06,39,10.90
2008,07,12,06,40,10.90
2008,07,12,06,41,11.00
2008,07,12,06,42,11.00
2008,07,12,06,43,11.10
2008,07,12,06,44,11.20
2008,07,12,06,45,11.20
2008,07,12,06,46,11.30
2008,07,12,06,47,11.40
2008,07,12,06,48,11.40
2008,07,12,06,49,11.40
2008,07,12,06,50,11.50
2008,07,12,06,51,11.50
2008,07,12,06,52,11.60
2008,07,12,06,53,11.60
2008,07,12,06,54,11.70
2008,07,12,06,55,11.70
2008,07,12,06,56,11.80
2008,07,12,06,57,11.80
2008,07,12,06,58,11.90
2008,07,12,06,59,11.90
2008,07,12,07,00,12.00
2008,07,12,07,01,12.10
2008,07,12,07,02,12.10
2008,07,12,07,03,12.20
2008,07,12,07,04,12.30
2008,07,12,07,05,12.40
2008,07,12,07,06,12.40
2008,07,12,07,07,12.50
2008,07,12,07,08,12.60
2008,07,12,07,09,12.60
2008,07,12,07,10,12.70
2008,07,12,07,11,12.70
2008,07,12,07,12,12.80
2008,07,12,07,13,12.80
2008,07,12,07,14,12.90
2008,07,12,07,15,12.90
2008,07,12,07,16,13.00
2008,07,12,07,17,13.00
2008,07,12,07,18,13.10
2008,07,12,07,19,13.20
2008,07,12,07,20,13.20
2008,07,12,07,21,13.30
2008,07,12,07,22,13.30
2008,07,12,07,23,13.40
2008,07,12,07,24,13.40
2008,07,12,07,25,13.50
2008,07,12,07,26,13.50
2008,07,12,07,27,13.60
2008,07,12,07,28,13.60
2008,07,12,07,29,13.60
2008,07,12,07,30,13.70
2008,07,12,07,31,13.70
2008,07,12,07,32,13.80
2008,07,12,07,33,13.80
2008,07,12,07,34,13.90
2008,07,12,07,35,13.90
2008,07,12,07,36,13.90
2008,07,12,07,37,14.00
2008,07,12,07,38,14.00
2008,07,12,07,39,14.00
2008,07,12,07,40,14.00
2008,07,12,07,41,14.00
2008,07,12,07,42,14.10
2008,07,12,07,43,14.20
2008,07,12,07,44,14.20
2008,07,12,07,45,14.20
2008,07,12,07,46,14.30
2008,07,12,07,47,14.30
2008,07,12,07,48,14.30
2008,07,12,07,49,14.40
2008,07,12,07,50,14.40
2008,07,12,07,51,14.50
2008,07,12,07,52,14.50
2008,07,12,07,53,14.60
2008,07,12,07,54,14.60
2008,07,12,07,55,14.70
2008,07,12,07,56,14.80
2008,07,12,07,57,14.90
2008,07,12,07,58,15.00
2008,07,12,07,59,15.00
2008,07,12,08,00,15.00
2008,07,12,08,01,15.00
2008,07,12,08,02,15.00
2008,07,12,08,03,15.00
2008,07,12,08,04,15.00
2008,07,12,08,05,14.90
2008,07,12,08,06,14.90
2008,07,12,08,07,14.90
2008,07,12,08,08,14.90
2008,07,12,08,09,15.00
2008,07,12,08,10,15.00
2008,07,12,08,11,15.00
2008,07,12,08,12,15.00
2008,07,12,08,13,15.10
2008,07,12,08,14,15.20
2008,07,12,08,15,15.20
2008,07,12,08,16,15.30
2008,07,12,08,17,15.40
2008,07,12,08,18,15.40
2008,07,12,08,19,15.50
2008,07,12,08,20,15.50
2008,07,12,08,21,15.60
2008,07,12,08,22,15.60
2008,07,12,08,23,15.70
2008,07,12,08,24,15.70
2008,07,12,08,25,15.70
2008,07,12,08,26,15.70
2008,07,12,08,27,15.80
2008,07,12,08,28,15.80
2008,07,12,08,29,15.80
2008,07,12,08,30,15.90
2008,07,12,08,31,15.90
2008,07,12,08,32,15.90
2008,07,12,08,33,15.90
2008,07,12,08,34,16.00
2008,07,12,08,35,16.10
2008,07,12,08,36,16.20
2008,07,12,08,37,16.30
2008,07,12,08,38,16.30
2008,07,12,08,39,16.40
2008,07,12,08,40,16.50
2008,07,12,08,41,16.60
2008,07,12,08,42,16.70
2008,07,12,08,43,16.80
2008,07,12,08,44,17.00
2008,07,12,08,45,17.00
2008,07,12,08,46,17.10
2008,07,12,08,47,17.20
2008,07,12,08,48,17.30
2008,07,12,08,49,17.30
2008,07,12,08,50,17.40
2008,07,12,08,51,17.40
2008,07,12,08,52,17.50
2008,07,12,08,53,17.60
2008,07,12,08,54,17.70
2008,07,12,08,55,17.80
2008,07,12,08,56,17.90
2008,07,12,08,57,18.00
2008,07,12,08,58,18.10
2008,07,12,08,59,18.10
2008,07,12,09,00,18.10
2008,07,12,09,01,18.20
2008,07,12,09,02,18.30
2008,07,12,09,03,18.30
2008,07,12,09,04,18.30
2008,07,12,09,05,18.40
2008,07,12,09,06,18.50
2008,07,12,09,07,18.60
2008,07,12,09,08,18.70
2008,07,12,09,09,18.80
2008,07,12,09,10,18.90
2008,07,12,09,11,19.00
2008,07,12,09,12,19.00
2008,07,12,09,13,19.00
2008,07,12,09,14,19.20
2008,07,12,09,15,19.20
2008,07,12,09,16,19.20
2008,07,12,09,17,19.30
2008,07,12,09,18,19.40
2008,07,12,09,19,19.50
2008,07,12,09,20,19.60
2008,07,12,09,21,19.70
2008,07,12,09,22,19.80
2008,07,12,09,23,19.80
2008,07,12,09,24,19.90
2008,07,12,09,25,20.00
2008,07,12,09,26,20.00
2008,07,12,09,27,19.90
2008,07,12,09,28,19.90
2008,07,12,09,29,19.70
2008,07,12,09,30,19.60
2008,07,12,09,31,19.40
2008,07,12,09,32,19.30
2008,07,12,09,33,19.10
2008,07,12,09,34,18.90
2008,07,12,09,35,18.70
2008,07,12,09,36,18.50
2008,07,12,09,37,18.40
2008,07,12,09,38,18.30
2008,07,12,09,39,18.20
2008,07,12,09,40,18.10
2008,07,12,09,41,18.00
2008,07,12,09,42,17.90
2008,07,12,09,43,17.80
2008,07,12,09,44,17.70
2008,07,12,09,45,17.50
2008,07,12,09,46,17.40
2008,07,12,09,47,17.40
2008,07,12,09,48,17.30
2008,07,12,09,49,17.30
2008,07,12,09,50,17.30
2008,07,12,09,51,17.30
2008,07,12,09,52,17.40
2008,07,12,09,53,17.40
2008,07,12,09,54,17.50
2008,07,12,09,55,17.50
2008,07,12,09,56,17.60
2008,07,12,09,57,17.70
2008,07,12,09,58,17.70
2008,07,12,09,59,17.70
2008,07,12,10,00,17.70
2008,07,12,10,01,17.70
2008,07,12,10,02,17.70
2008,07,12,10,03,17.80
2008,07,12,10,04,17.80
2008,07,12,10,05,17.80
2008,07,12,10,06,17.90
2008,07,12,10,07,17.90
2008,07,12,10,08,18.00
2008,07,12,10,09,18.10
2008,07,12,10,10,18.10
2008,07,12,10,11,18.20
2008,07,12,10,12,18.20
2008,07,12,10,13,18.30
2008,07,12,10,14,18.30
2008,07,12,10,15,18.30
2008,07,12,10,16,18.30
2008,07,12,10,17,18.30
2008,07,12,10,18,18.30
2008,07,12,10,19,18.30
2008,07,12,10,20,18.40
2008,07,12,10,21,18.40
2008,07,12,10,22,18.50
2008,07,12,10,23,18.50
2008,07,12,10,24,18.50
2008,07,12,10,25,18.50
2008,07,12,10,26,18.40
2008,07,12,10,27,18.40
2008,07,12,10,28,18.40
2008,07,12,10,29,18.50
2008,07,12,10,30,18.50
2008,07,12,10,31,18.60
2008,07,12,10,32,18.70
2008,07,12,10,33,18.70
2008,07,12,10,34,18.70
2008,07,12,10,35,18.70
2008,07,12,10,36,18.70
2008,07,12,10,37,18.80
2008,07,12,10,38,18.80
2008,07,12,10,39,18.80
2008,07,12,10,40,18.80
2008,07,12,10,41,18.80
2008,07,12,10,42,18.80
2008,07,12,10,43,18.80
2008,07,12,10,44,18.70
2008,07,12,10,45,18.70
2008,07,12,10,46,18.70
2008,07,12,10,47,18.70
2008,07,12,10,48,18.80
2008,07,12,10,49,18.80
2008,07,12,10,50,18.80
2008,07,12,10,51,18.80
2008,07,12,10,52,18.90
2008,07,12,10,53,19.00
2008,07,12,10,54,19.10
2008,07,12,10,55,19.10
2008,07,12,10,56,19.10
2008,07,12,10,57,19.20
2008,07,12,10,58,19.20
2008,07,12,10,59,19.20
2008,07,12,11,00,19.30
2008,07,12,11,01,19.30
2008,07,12,11,02,19.40
2008,07,12,11,03,19.50
2008,07,12,11,04,19.50
2008,07,12,11,05,19.70
2008,07,12,11,06,19.80
2008,07,12,11,07,19.90
2008,07,12,11,08,20.00
2008,07,12,11,09,20.10
2008,07,12,11,10,20.20
2008,07,12,11,11,20.30
2008,07,12,11,12,20.40
2008,07,12,11,13,20.40
2008,07,12,11,14,20.50
2008,07,12,11,15,20.50
2008,07,12,11,16,20.60
2008,07,12,11,17,20.70
2008,07,12,11,18,20.70
2008,07,12,11,19,20.80
2008,07,12,11,20,20.90
2008,07,12,11,21,21.00
2008,07,12,11,22,21.00
2008,07,12,11,23,21.10
2008,07,12,11,24,21.10
2008,07,12,11,25,21.10
2008,07,12,11,26,21.10
2008,07,12,11,27,21.10
2008,07,12,11,28,21.10
2008,07,12,11,29,21.20
2008,07,12,11,30,21.20
2008,07,12,11,31,21.30
2008,07,12,11,32,21.20
2008,07,12,11,33,21.20
2008,07,12,11,34,21.20
2008,07,12,11,35,21.20
2008,07,12,11,36,21.20
2008,07,12,11,37,21.20
2008,07,12,11,38,21.20
2008,07,12,11,39,21.20
2008,07,12,11,40,21.10
2008,07,12,11,41,21.10
2008,07,12,11,42,21.10
2008,07,12,11,43,21.10
2008,07,12,11,44,21.10
2008,07,12,11,45,21.10
2008,07,12,11,46,21.20
2008,07,12,11,47,21.20
2008,07,12,11,48,21.30
2008,07,12,11,49,21.40
2008,07,12,11,50,21.50
2008,07,12,11,51,21.50
2008,07,12,11,52,21.60
2008,07,12,11,53,21.70
2008,07,12,11,54,21.80
2008,07,12,11,55,21.80
2008,07,12,11,56,21.90
2008,07,12,11,57,22.00
2008,07,12,11,58,22.00
2008,07,12,11,59,22.10
2008,07,12,12,00,22.10
2008,07,12,12,01,22.10
2008,07,12,12,02,22.10
2008,07,12,12,03,22.10
2008,07,12,12,04,22.10
2008,07,12,12,05,22.10
2008,07,12,12,06,22.10
2008,07,12,12,07,22.10
2008,07,12,12,08,22.00
2008,07,12,12,09,21.90
2008,07,12,12,10,21.90
2008,07,12,12,11,21.90
2008,07,12,12,12,21.90
2008,07,12,12,13,21.90
2008,07,12,12,14,21.80
2008,07,12,12,15,21.90
2008,07,12,12,16,21.90
2008,07,12,12,17,21.90
2008,07,12,12,18,22.00
2008,07,12,12,19,22.00
2008,07,12,12,20,22.10
2008,07,12,12,21,22.10
2008,07,12,12,22,22.20
2008,07,12,12,23,22.20
2008,07,12,12,24,22.20
2008,07,12,12,25,22.30
2008,07,12,12,26,22.30
2008,07,12,12,27,22.30
2008,07,12,12,28,22.20
2008,07,12,12,29,22.20
2008,07,12,12,30,22.10
2008,07,12,12,31,22.10
2008,07,12,12,32,22.10
2008,07,12,12,33,22.00
2008,07,12,12,34,22.00
2008,07,12,12,35,22.00
2008,07,12,12,36,21.90
2008,07,12,12,37,21.90
2008,07,12,12,38,21.90
2008,07,12,12,39,21.90
2008,07,12,12,40,21.90
2008,07,12,12,41,21.90
2008,07,12,12,42,21.90
2008,07,12,12,43,22.00
2008,07,12,12,44,22.00
2008,07,12,12,45,22.10
2008,07,12,12,46,22.20
2008,07,12,12,47,22.20
2008,07,12,12,48,22.20
2008,07,12,12,49,22.10
2008,07,12,12,50,22.00
2008,07,12,12,51,21.90
2008,07,12,12,52,21.80
2008,07,12,12,53,21.70
2008,07,12,12,54,21.70
2008,07,12,12,55,21.70
2008,07,12,12,56,21.70
2008,07,12,12,57,21.70
2008,07,12,12,58,21.70
2008,07,12,12,59,21.80
2008,07,12,13,00,21.80
2008,07,12,13,01,21.90
2008,07,12,13,02,21.90
2008,07,12,13,03,22.00
2008,07,12,13,04,22.00
2008,07,12,13,05,22.00
2008,07,12,13,06,22.10
2008,07,12,13,07,22.10
2008,07,12,13,08,22.20
2008,07,12,13,09,22.20
2008,07,12,13,10,22.20
2008,07,12,13,11,22.20
2008,07,12,13,12,22.20
2008,07,12,13,13,22.20
2008,07,12,13,14,22.20
2008,07,12,13,15,22.30
2008,07,12,13,16,22.30
2008,07,12,13,17,22.30
2008,07,12,13,18,22.40
2008,07,12,13,19,22.50
2008,07,12,13,20,22.60
2008,07,12,13,21,22.70
2008,07,12,13,22,22.70
2008,07,12,13,23,22.80
2008,07,12,13,24,22.90
2008,07,12,13,25,22.90
2008,07,12,13,26,23.00
2008,07,12,13,27,23.10
2008,07,12,13,28,23.20
2008,07,12,13,29,23.30
2008,07,12,13,30,23.40
2008,07,12,13,31,23.50
2008,07,12,13,32,23.60
2008,07,12,13,33,23.60
2008,07,12,13,34,23.70
2008,07,12,13,35,23.70
2008,07,12,13,36,23.80
2008,07,12,13,37,23.80
2008,07,12,13,38,24.00
2008,07,12,13,39,24.00
2008,07,12,13,40,24.10
2008,07,12,13,41,24.20
2008,07,12,13,42,24.20
2008,07,12,13,43,24.30
2008,07,12,13,44,24.30
2008,07,12,13,45,24.40
2008,07,12,13,46,24.40
2008,07,12,13,47,24.30
2008,07,12,13,48,24.40
2008,07,12,13,49,24.40
2008,07,12,13,50,24.40
2008,07,12,13,51,24.40
2008,07,12,13,52,24.50
2008,07,12,13,53,24.50
2008,07,12,13,54,24.60
2008,07,12,13,55,24.70
2008,07,12,13,56,24.70
2008,07,12,13,57,24.60
2008,07,12,13,58,24.60
2008,07,12,13,59,24.60
2008,07,12,14,00,24.60
2008,07,12,14,01,24.60
2008,07,12,14,02,24.60
2008,07,12,14,03,24.60
2008,07,12,14,04,24.60
2008,07,12,14,05,24.60
2008,07,12,14,06,24.60
2008,07,12,14,07,24.50
2008,07,12,14,08,24.40
2008,07,12,14,09,24.40
2008,07,12,14,10,24.40
2008,07,12,14,11,24.40
2008,07,12,14,12,24.40
2008,07,12,14,13,24.30
2008,07,12,14,14,24.30
2008,07,12,14,15,24.40
2008,07,12,14,16,24.50
2008,07,12,14,17,24.50
2008,07,12,14,18,24.60
2008,07,12,14,19,24.70
2008,07,12,14,20,24.80
2008,07,12,14,21,24.80
2008,07,12,14,22,24.90
2008,07,12,14,23,25.00
2008,07,12,14,24,25.00
2008,07,12,14,25,25.00
2008,07,12,14,26,24.90
2008,07,12,14,27,24.90
2008,07,12,14,28,24.90
2008,07,12,14,29,25.00
2008,07,12,14,30,25.00
2008,07,12,14,31,24.90
2008,07,12,14,32,24.80
2008,07,12,14,33,24.80
2008,07,12,14,34,24.80
2008,07,12,14,35,24.70
2008,07,12,14,36,24.70
2008,07,12,14,37,24.70
2008,07,12,14,38,24.60
2008,07,12,14,39,24.60
2008,07,12,14,40,24.60
2008,07,12,14,41,24.60
2008,07,12,14,42,24.60
2008,07,12,14,43,24.70
2008,07,12,14,44,24.70
2008,07,12,14,45,24.80
2008,07,12,14,46,24.90
2008,07,12,14,47,25.10
2008,07,12,14,48,25.20
2008,07,12,14,49,25.30
2008,07,12,14,50,25.20
2008,07,12,14,51,25.30
2008,07,12,14,52,25.30
2008,07,12,14,53,25.30
2008,07,12,14,54,25.40
2008,07,12,14,55,25.40
2008,07,12,14,56,25.50
2008,07,12,14,57,25.50
2008,07,12,14,58,25.60
2008,07,12,14,59,25.70
2008,07,12,15,00,25.80
2008,07,12,15,01,25.90
2008,07,12,15,02,26.00
2008,07,12,15,03,26.10
2008,07,12,15,04,26.20
2008,07,12,15,05,26.20
2008,07,12,15,06,26.10
2008,07,12,15,07,25.90
2008,07,12,15,08,25.90
2008,07,12,15,09,25.90
2008,07,12,15,10,25.90
2008,07,12,15,11,25.80
2008,07,12,15,12,25.70
2008,07,12,15,13,25.60
2008,07,12,15,14,25.60
2008,07,12,15,15,25.60
2008,07,12,15,16,25.50
2008,07,12,15,17,25.60
2008,07,12,15,18,25.60
2008,07,12,15,19,25.50
2008,07,12,15,20,25.50
2008,07,12,15,21,25.20
2008,07,12,15,22,25.10
2008,07,12,15,23,24.90
2008,07,12,15,24,24.80
2008,07,12,15,25,24.60
2008,07,12,15,26,24.60
2008,07,12,15,27,24.50
2008,07,12,15,28,24.50
2008,07,12,15,29,24.50
2008,07,12,15,30,24.50
2008,07,12,15,31,24.60
2008,07,12,15,32,24.70
2008,07,12,15,33,24.80
2008,07,12,15,34,24.90
2008,07,12,15,35,25.00
2008,07,12,15,36,25.10
2008,07,12,15,37,25.20
2008,07,12,15,38,25.30
2008,07,12,15,39,25.30
2008,07,12,15,40,25.40
2008,07,12,15,41,25.30
2008,07,12,15,42,25.10
2008,07,12,15,43,25.00
2008,07,12,15,44,24.90
2008,07,12,15,45,24.90
2008,07,12,15,46,25.00
2008,07,12,15,47,24.90
2008,07,12,15,48,24.90
2008,07,12,15,49,25.00
2008,07,12,15,50,25.10
2008,07,12,15,51,25.10
2008,07,12,15,52,25.00
2008,07,12,15,53,24.90
2008,07,12,15,54,24.90
2008,07,12,15,55,24.80
2008,07,12,15,56,24.80
2008,07,12,15,57,24.70
2008,07,12,15,58,24.70
2008,07,12,15,59,24.60
2008,07,12,16,00,24.50
2008,07,12,16,01,24.30
2008,07,12,16,02,24.20
2008,07,12,16,03,24.10
2008,07,12,16,04,24.10
2008,07,12,16,05,24.00
2008,07,12,16,06,23.90
2008,07,12,16,07,23.90
2008,07,12,16,08,23.70
2008,07,12,16,09,23.40
2008,07,12,16,10,23.30
2008,07,12,16,11,23.20
2008,07,12,16,12,23.10
2008,07,12,16,13,23.00
2008,07,12,16,14,23.00
2008,07,12,16,15,22.90
2008,07,12,16,16,22.90
2008,07,12,16,17,22.90
2008,07,12,16,18,22.90
2008,07,12,16,19,22.70
2008,07,12,16,20,22.60
2008,07,12,16,21,22.50
2008,07,12,16,22,22.40
2008,07,12,16,23,22.30
2008,07,12,16,24,22.30
2008,07,12,16,25,22.30
2008,07,12,16,26,22.30
2008,07,12,16,27,22.30
2008,07,12,16,28,22.30
2008,07,12,16,29,22.30
2008,07,12,16,30,22.30
2008,07,12,16,31,22.30
2008,07,12,16,32,22.30
2008,07,12,16,33,22.40
2008,07,12,16,34,22.40
2008,07,12,16,35,22.40
2008,07,12,16,36,22.40
2008,07,12,16,37,22.40
2008,07,12,16,38,22.40
2008,07,12,16,39,22.40
2008,07,12,16,40,22.30
2008,07,12,16,41,22.20
2008,07,12,16,42,22.00
2008,07,12,16,43,21.80
2008,07,12,16,44,21.80
2008,07,12,16,45,21.70
2008,07,12,16,46,21.70
2008,07,12,16,47,21.60
2008,07,12,16,48,21.60
2008,07,12,16,49,21.60
2008,07,12,16,50,21.70
2008,07,12,16,51,21.70
2008,07,12,16,52,21.70
2008,07,12,16,53,21.60
2008,07,12,16,54,21.60
2008,07,12,16,55,21.60
2008,07,12,16,56,21.50
2008,07,12,16,57,21.40
2008,07,12,16,58,21.20
2008,07,12,16,59,21.10
2008,07,12,17,00,21.00
2008,07,12,17,01,20.90
2008,07,12,17,02,20.80
2008,07,12,17,03,20.60
2008,07,12,17,04,20.50
2008,07,12,17,05,20.40
2008,07,12,17,06,20.30
2008,07,12,17,07,20.20
2008,07,12,17,08,20.10
2008,07,12,17,09,20.00
2008,07,12,17,10,19.90
2008,07,12,17,11,19.90
2008,07,12,17,12,19.80
2008,07,12,17,13,19.70
2008,07,12,17,14,19.60
2008,07,12,17,15,19.50
2008,07,12,17,16,19.50
2008,07,12,17,17,19.40
2008,07,12,17,18,19.30
2008,07,12,17,19,19.30
2008,07,12,17,20,19.20
2008,07,12,17,21,19.20
2008,07,12,17,22,19.10
2008,07,12,17,23,19.10
2008,07,12,17,24,19.00
2008,07,12,17,25,19.00
2008,07,12,17,26,18.90
2008,07,12,17,27,18.90
2008,07,12,17,28,18.80
2008,07,12,17,29,18.80
2008,07,12,17,30,18.80
2008,07,12,17,31,18.70
2008,07,12,17,32,18.70
2008,07,12,17,33,18.70
2008,07,12,17,34,18.70
2008,07,12,17,35,18.70
2008,07,12,17,36,18.80
2008,07,12,17,37,18.90
2008,07,12,17,38,19.00
2008,07,12,17,39,19.10
2008,07,12,17,40,19.30
2008,07,12,17,41,19.50
2008,07,12,17,42,19.70
2008,07,12,17,43,20.00
2008,07,12,17,44,20.20
2008,07,12,17,45,20.30
2008,07,12,17,46,20.50
2008,07,12,17,47,20.70
2008,07,12,17,48,20.80
2008,07,12,17,49,20.90
2008,07,12,17,50,21.00
2008,07,12,17,51,21.10
2008,07,12,17,52,21.20
2008,07,12,17,53,21.30
2008,07,12,17,54,21.40
2008,07,12,17,55,21.40
2008,07,12,17,56,21.40
2008,07,12,17,57,21.40
2008,07,12,17,58,21.30
2008,07,12,17,59,21.20
2008,07,12,18,00,21.00
2008,07,12,18,01,20.80
2008,07,12,18,02,20.60
2008,07,12,18,03,20.50
2008,07,12,18,04,20.30
2008,07,12,18,05,20.10
2008,07,12,18,06,19.90
2008,07,12,18,07,19.80
2008,07,12,18,08,19.80